Previsão horária em Barra

Hoje, 22 Outubro, Quinta-feira

Tempo Temperatura Precipitação Vento Pressão Humidade
00:00 +28°C° 0 mm 4 m/s 758 mmHg 92%
01:00 +28°C° 0 mm 3 m/s 758 mmHg 92%
02:00 +28°C° 0 mm 3 m/s 758 mmHg 92%
03:00 +28°C° 0 mm 3 m/s 758 mmHg 90%
04:00 +28°C° 0 mm 3 m/s 757 mmHg 87%
05:00 +28°C° 0 mm 3 m/s 757 mmHg 84%
06:00 +29°C° 0 mm 3 m/s 758 mmHg 78%
07:00 +30°C° 0 mm 3 m/s 758 mmHg 73%
08:00 +30°C° 0 mm 3 m/s 759 mmHg 67%
09:00 +32°C° 0 mm 2 m/s 759 mmHg 58%
10:00 +35°C° 0 mm 2 m/s 758 mmHg 50%
11:00 +36°C° 0 mm 2 m/s 758 mmHg 41%
12:00 +36°C° 0 mm 2 m/s 758 mmHg 40%
13:00 +37°C° 0 mm 2 m/s 757 mmHg 38%
14:00 +37°C° 0 mm 2 m/s 757 mmHg 37%
15:00 +36°C° 0 mm 3 m/s 757 mmHg 43%
16:00 +35°C° 0 mm 3 m/s 757 mmHg 49%
17:00 +34°C° 0 mm 3 m/s 757 mmHg 55%
18:00 +33°C° 0 mm 3 m/s 757 mmHg 59%
19:00 +31°C° 0 mm 3 m/s 758 mmHg 63%
20:00 +30°C° 0 mm 4 m/s 759 mmHg 67%
21:00 +30°C° 0 mm 4 m/s 759 mmHg 69%
22:00 +30°C° 0 mm 4 m/s 759 mmHg 71%
23:00 +29°C° 0 mm 4 m/s 759 mmHg 73%

Amanhã, 23 Outubro, Sexta-feira

Tempo Temperatura Precipitação Vento Pressão Humidade
00:00 +29°C° 0 mm 4 m/s 758 mmHg 72%
01:00 +29°C° 0 mm 3 m/s 758 mmHg 72%
02:00 +28°C° 0 mm 3 m/s 758 mmHg 71%
03:00 +28°C° 0 mm 3 m/s 757 mmHg 72%
04:00 +28°C° 0 mm 4 m/s 757 mmHg 72%
05:00 +28°C° 0 mm 4 m/s 757 mmHg 73%
06:00 +28°C° 0 mm 4 m/s 758 mmHg 71%
07:00 +29°C° 0 mm 4 m/s 758 mmHg 68%
08:00 +30°C° 0 mm 4 m/s 759 mmHg 66%
09:00 +33°C° 0 mm 4 m/s 759 mmHg 57%
10:00 +35°C° 0 mm 3 m/s 758 mmHg 49%
11:00 +37°C° 0 mm 2 m/s 758 mmHg 40%
12:00 +37°C° 0 mm 3 m/s 758 mmHg 39%
13:00 +37°C° 0 mm 3 m/s 757 mmHg 38%
14:00 +38°C° 0 mm 3 m/s 757 mmHg 38%
15:00 +36°C° 0 mm 4 m/s 757 mmHg 47%
16:00 +35°C° 0 mm 4 m/s 757 mmHg 57%
17:00 +33°C° 0 mm 5 m/s 757 mmHg 67%
18:00 +32°C° 0 mm 5 m/s 757 mmHg 70%
19:00 +32°C° 0 mm 5 m/s 758 mmHg 73%
20:00 +30°C° 0 mm 5 m/s 758 mmHg 77%
21:00 +30°C° 0 mm 5 m/s 758 mmHg 76%
22:00 +30°C° 0 mm 5 m/s 758 mmHg 75%
23:00 +29°C° 0 mm 5 m/s 758 mmHg 75%

Depois de amanhã, 24 Outubro, Sábado

Tempo Temperatura Precipitação Vento Pressão Humidade
00:00 +29°C° 0 mm 4 m/s 758 mmHg 75%
01:00 +29°C° 0 mm 4 m/s 758 mmHg 74%
02:00 +28°C° 0 mm 4 m/s 757 mmHg 74%
03:00 +28°C° 0 mm 4 m/s 757 mmHg 75%
04:00 +28°C° 0 mm 4 m/s 757 mmHg 77%
05:00 +28°C° 0 mm 4 m/s 757 mmHg 78%
06:00 +29°C° 0 mm 4 m/s 758 mmHg 74%
07:00 +29°C° 0 mm 3 m/s 758 mmHg 71%
08:00 +30°C° 0 mm 3 m/s 758 mmHg 67%
09:00 +33°C° 0 mm 3 m/s 758 mmHg 59%
10:00 +35°C° 0 mm 2 m/s 758 mmHg 50%
11:00 +36°C° 0 mm 2 m/s 758 mmHg 42%
12:00 +36°C° 0 mm 3 m/s 758 mmHg 42%
13:00 +37°C° 0 mm 3 m/s 757 mmHg 43%
14:00 +37°C° 0 mm 4 m/s 756 mmHg 43%
15:00 +35°C° 0 mm 4 m/s 756 mmHg 51%
16:00 +34°C° 0 mm 4 m/s 756 mmHg 60%
17:00 +32°C° 0 mm 5 m/s 756 mmHg 69%
18:00 +32°C° 0 mm 4 m/s 757 mmHg 73%
19:00 +30°C° 0 mm 4 m/s 757 mmHg 76%
20:00 +29°C° 0 mm 4 m/s 758 mmHg 80%
21:00 +29°C° 0 mm 4 m/s 758 mmHg 80%
22:00 +29°C° 0 mm 3 m/s 758 mmHg 80%
23:00 +29°C° 0 mm 3 m/s 758 mmHg 80%

, 25 Outubro, Domingo

Tempo Temperatura Precipitação Vento Pressão Humidade
00:00 +28°C° 0 mm 3 m/s 757 mmHg 81%
01:00 +28°C° 0 mm 3 m/s 757 mmHg 82%
02:00 +28°C° 0 mm 2 m/s 757 mmHg 83%
03:00 +28°C° 0 mm 3 m/s 756 mmHg 84%
04:00 +28°C° 0 mm 3 m/s 756 mmHg 84%
05:00 +28°C° 0 mm 3 m/s 756 mmHg 85%
06:00 +29°C° 0 mm 3 m/s 757 mmHg 80%
07:00 +30°C° 0 mm 3 m/s 757 mmHg 76%
08:00 +31°C° 0 mm 3 m/s 757 mmHg 71%
09:00 +33°C° 0 mm 3 m/s 757 mmHg 64%
10:00 +35°C° 0 mm 3 m/s 757 mmHg 56%
11:00 +36°C° 0 mm 3 m/s 757 mmHg 49%
12:00 +37°C° 0 mm 3 m/s 757 mmHg 48%
13:00 +37°C° 0 mm 3 m/s 756 mmHg 46%
14:00 +37°C° 0 mm 3 m/s 755 mmHg 45%
15:00 +36°C° 0 mm 4 m/s 756 mmHg 52%
16:00 +35°C° 0 mm 4 m/s 756 mmHg 58%
17:00 +33°C° 0 mm 5 m/s 756 mmHg 65%
18:00 +32°C° 0 mm 4 m/s 756 mmHg 68%
19:00 +32°C° 0 mm 4 m/s 757 mmHg 72%
20:00 +30°C° 0 mm 4 m/s 757 mmHg 76%
21:00 +30°C° 0 mm 3 m/s 757 mmHg 77%
22:00 +29°C° 0 mm 3 m/s 757 mmHg 78%
23:00 +29°C° 0 mm 2 m/s 757 mmHg 79%

25 Outubro, Domingo

Tempo Temperatura Precipitação Vento Pressão Humidade
00:00 +28°C° 0 mm 3 m/s 757 mmHg 81%
01:00 +28°C° 0 mm 3 m/s 757 mmHg 82%
02:00 +28°C° 0 mm 2 m/s 757 mmHg 83%
03:00 +28°C° 0 mm 3 m/s 756 mmHg 84%
04:00 +28°C° 0 mm 3 m/s 756 mmHg 84%
05:00 +28°C° 0 mm 3 m/s 756 mmHg 85%
06:00 +29°C° 0 mm 3 m/s 757 mmHg 80%
07:00 +30°C° 0 mm 3 m/s 757 mmHg 76%
08:00 +31°C° 0 mm 3 m/s 757 mmHg 71%
09:00 +33°C° 0 mm 3 m/s 757 mmHg 64%
10:00 +35°C° 0 mm 3 m/s 757 mmHg 56%
11:00 +36°C° 0 mm 3 m/s 757 mmHg 49%
12:00 +37°C° 0 mm 3 m/s 757 mmHg 48%
13:00 +37°C° 0 mm 3 m/s 756 mmHg 46%
14:00 +37°C° 0 mm 3 m/s 755 mmHg 45%
15:00 +36°C° 0 mm 4 m/s 756 mmHg 52%
16:00 +35°C° 0 mm 4 m/s 756 mmHg 58%
17:00 +33°C° 0 mm 5 m/s 756 mmHg 65%
18:00 +32°C° 0 mm 4 m/s 756 mmHg 68%
19:00 +32°C° 0 mm 4 m/s 757 mmHg 72%
20:00 +30°C° 0 mm 4 m/s 757 mmHg 76%
21:00 +30°C° 0 mm 3 m/s 757 mmHg 77%
22:00 +29°C° 0 mm 3 m/s 757 mmHg 78%
23:00 +29°C° 0 mm 2 m/s 757 mmHg 79%

26 Outubro, Segunda-feira

Tempo Temperatura Precipitação Vento Pressão Humidade
00:00 +29°C° 0 mm 3 m/s 756 mmHg 80%
01:00 +29°C° 0 mm 3 m/s 756 mmHg 80%
02:00 +29°C° 0 mm 4 m/s 756 mmHg 80%
03:00 +29°C° 0 mm 4 m/s 756 mmHg 82%
04:00 +28°C° 0 mm 4 m/s 756 mmHg 84%
05:00 +28°C° 0 mm 4 m/s 756 mmHg 85%
06:00 +29°C° 0 mm 4 m/s 756 mmHg 80%
07:00 +30°C° 0 mm 4 m/s 756 mmHg 75%
08:00 +31°C° 0 mm 3 m/s 757 mmHg 69%
09:00 +34°C° 0 mm 3 m/s 757 mmHg 60%
10:00 +36°C° 0 mm 3 m/s 757 mmHg 51%
11:00 +37°C° 0 mm 2 m/s 757 mmHg 41%
12:00 +37°C° 0 mm 3 m/s 756 mmHg 39%
13:00 +38°C° 0 mm 3 m/s 755 mmHg 37%
14:00 +38°C° 0 mm 3 m/s 755 mmHg 35%
15:00 +37°C° 0 mm 4 m/s 755 mmHg 44%
16:00 +35°C° 0 mm 4 m/s 755 mmHg 53%
17:00 +33°C° 0 mm 4 m/s 755 mmHg 62%
18:00 +32°C° 0 mm 4 m/s 755 mmHg 66%
19:00 +30°C° 0 mm 4 m/s 755 mmHg 71%
20:00 +29°C° 0 mm 4 m/s 756 mmHg 75%
21:00 +29°C° 0 mm 4 m/s 756 mmHg 78%
22:00 +29°C° 0 mm 4 m/s 756 mmHg 80%
23:00 +29°C° 0 mm 3 m/s 756 mmHg 83%

27 Outubro, Terça-feira

Tempo Temperatura Precipitação Vento Pressão Humidade
00:00 +28°C° 0 mm 4 m/s 756 mmHg 84%
01:00 +28°C° 0 mm 4 m/s 755 mmHg 85%
02:00 +28°C° 0 mm 4 m/s 755 mmHg 86%
03:00 +28°C° 0 mm 4 m/s 755 mmHg 87%
04:00 +28°C° 0 mm 3 m/s 755 mmHg 88%
05:00 +27°C° 0 mm 3 m/s 755 mmHg 89%
06:00 +28°C° 0 mm 3 m/s 755 mmHg 84%
07:00 +30°C° 0 mm 3 m/s 756 mmHg 79%
08:00 +32°C° 0 mm 4 m/s 756 mmHg 74%
09:00 +33°C° 0 mm 4 m/s 756 mmHg 66%
10:00 +34°C° 0 mm 4 m/s 756 mmHg 59%
11:00 +36°C° 0 mm 4 m/s 756 mmHg 52%
12:00 +36°C° 0 mm 4 m/s 755 mmHg 50%
13:00 +36°C° 0 mm 4 m/s 755 mmHg 48%
14:00 +36°C° 0 mm 4 m/s 754 mmHg 47%
15:00 +35°C° 0 mm 4 m/s 754 mmHg 54%
16:00 +34°C° 0 mm 5 m/s 755 mmHg 61%
17:00 +32°C° 0 mm 5 m/s 755 mmHg 68%
18:00 +32°C° 0 mm 5 m/s 755 mmHg 71%
19:00 +30°C° 0 mm 5 m/s 756 mmHg 75%
20:00 +29°C° 0 mm 4 m/s 756 mmHg 78%
21:00 +29°C° 0 mm 4 m/s 756 mmHg 80%
22:00 +29°C° 0 mm 4 m/s 756 mmHg 82%
23:00 +28°C° 0 mm 4 m/s 756 mmHg 83%
Mostrar mais